Petersburg, AK

3:55 AM AKDT on May 24, 2017 (GMT -0800)
Johnson Petersburg

Weather History for PAPG - November, 2010

Change the Weather History Date:

Sunday, November 7, 2010

  Actual Average Record
Temperature  
Mean Temperature 40 °F -  
Max Temperature 44 °F 40 °F 51 °F (2016)
Min Temperature 37 °F 32 °F 19 °F (2003)
Degree Days  
Heating Degree Days 24    
Moisture  
Dew Point 37 °F    
Average Humidity 84    
Maximum Humidity 100    
Minimum Humidity 71    
Precipitation  
Precipitation 0.00 in - - ()
Sea Level Pressure  
Sea Level Pressure 29.54 in    
Wind  
Wind Speed 2 mph (North)    
Max Wind Speed 8 mph    
Max Gust Speed -    
Visibility 9 miles    
Events      
Averages and records for this station are not official NWS values.
T = Trace of Precipitation, MM = Missing Value Source: NWS Daily Summary

Daily Weather History Graph

Daily Weather History Graph

Search for Another Location

Airport or City:

Trip Planner

Search our weather history database for the weather conditions in past years. The results will help you decide how hot, cold, wet, or windy it might be!

Date:

Astronomy

Nov. 07, 2010 Rise Set
Actual Time 7:15 AM AKST 3:54 PM AKST
Civil Twilight 6:33 AM AKST 4:36 PM AKST
Nautical Twilight 5:47 AM AKST 5:22 PM AKST
Astronomical Twilight 5:03 AM AKST 6:06 PM AKST
Moon 9:47 AM AKST (11/7) 4:20 PM AKST (11/7)
Length of Visible Light 10h 03m
Length of Day
8h 39m
Waxing Crescent, 4% of the Moon is Illuminated
Nov 7
Waxing Crescent
Nov 13
First Quarter
Nov 21
Full
Nov 28
Last Quarter
Dec 5
New

Hourly Weather History & Observations

Time (AKST) Temp. Windchill Dew Point Humidity Pressure Visibility Wind Dir Wind Speed Gust Speed Precip Events Conditions
12:16 AM 42.8 °F - 35.6 °F 76% 29.39 in 10.0 mi Calm Calm - N/A   Overcast
12:36 AM 42.8 °F - 35.6 °F 76% 29.39 in 10.0 mi Calm Calm - N/A   Overcast
12:56 AM 41.0 °F - 35.6 °F 81% 29.39 in 10.0 mi Calm Calm - N/A   Overcast
1:16 AM 41.0 °F 37.1 °F 37.4 °F 87% 29.39 in 10.0 mi NNW 5.8 mph - N/A   Overcast
1:36 AM 41.0 °F 39.0 °F 37.4 °F 87% 29.39 in 10.0 mi SW 3.5 mph - N/A   Overcast
1:16 AM 39.2 °F - 37.4 °F 93% 29.40 in 10.0 mi Calm Calm - N/A   Overcast
1:36 AM 39.2 °F 35.0 °F 35.6 °F 87% 29.39 in 10.0 mi NE 5.8 mph - N/A   Overcast
1:56 AM 39.2 °F 37.0 °F 37.4 °F 93% 29.40 in 10.0 mi North 3.5 mph - N/A   Overcast
2:16 AM 39.2 °F - 37.4 °F 93% 29.40 in 10.0 mi Calm Calm - N/A   Overcast
3:36 AM 39.2 °F 37.0 °F 37.4 °F 93% 29.41 in 10.0 mi WNW 3.5 mph - N/A   Overcast
3:56 AM 42.8 °F - 37.4 °F 81% 29.42 in 10.0 mi Calm Calm - N/A   Overcast
4:16 AM 42.8 °F 41.1 °F 35.6 °F 76% 29.42 in 10.0 mi NNE 3.5 mph - N/A   Overcast
4:36 AM 42.8 °F 41.1 °F 35.6 °F 76% 29.43 in 10.0 mi North 3.5 mph - N/A   Overcast
4:56 AM 42.8 °F - 35.6 °F 76% 29.43 in 10.0 mi Calm Calm - N/A   Overcast
5:16 AM 41.0 °F - 35.6 °F 81% 29.43 in 10.0 mi Calm Calm - N/A   Overcast
5:36 AM 41.0 °F - 35.6 °F 81% 29.44 in 10.0 mi Calm Calm - N/A   Overcast
5:56 AM 42.8 °F - 35.6 °F 76% 29.44 in 10.0 mi Calm Calm - N/A   Mostly Cloudy
6:16 AM 42.8 °F - 35.6 °F 76% 29.45 in 10.0 mi Calm Calm - N/A   Mostly Cloudy
6:36 AM 42.8 °F - 35.6 °F 76% 29.45 in 10.0 mi Calm Calm - N/A   Mostly Cloudy
6:56 AM 42.8 °F 41.1 °F 35.6 °F 76% 29.46 in 10.0 mi NNW 3.5 mph - N/A   Overcast
7:16 AM 42.8 °F 39.3 °F 35.6 °F 76% 29.46 in 10.0 mi NW 5.8 mph - N/A   Overcast
7:36 AM 41.0 °F - 37.4 °F 87% 29.48 in 10.0 mi Calm Calm - N/A   Overcast
7:56 AM 42.8 °F - 35.6 °F 76% 29.49 in 10.0 mi Calm Calm - N/A   Overcast
8:16 AM 42.8 °F 40.1 °F 35.6 °F 76% 29.50 in 10.0 mi North 4.6 mph - N/A   Overcast
8:36 AM 42.8 °F - 37.4 °F 81% 29.50 in 10.0 mi Calm Calm - N/A   Overcast
8:56 AM 42.8 °F - 37.4 °F 81% 29.51 in 10.0 mi Calm Calm - N/A   Overcast
9:16 AM 41.0 °F - 37.4 °F 87% 29.52 in 10.0 mi Calm Calm - N/A   Overcast
9:36 AM 42.8 °F - 37.4 °F 81% 29.53 in 10.0 mi Calm Calm - N/A   Overcast
9:56 AM 42.8 °F - 37.4 °F 81% 29.53 in 10.0 mi Calm Calm - N/A   Overcast
10:16 AM 42.8 °F - 37.4 °F 81% 29.54 in 10.0 mi Calm Calm - N/A   Overcast
10:36 AM 42.8 °F - 37.4 °F 81% 29.54 in 10.0 mi Calm Calm - N/A   Overcast
10:56 AM 44.6 °F - 37.4 °F 76% 29.55 in 10.0 mi Calm Calm - N/A   Overcast
11:16 AM 42.8 °F - 37.4 °F 81% 29.56 in 10.0 mi Calm Calm - N/A   Overcast
11:36 AM 44.6 °F - 37.4 °F 76% 29.56 in 10.0 mi Calm Calm - N/A   Overcast
11:56 AM 44.6 °F - 39.2 °F 81% 29.57 in 10.0 mi Calm Calm - N/A   Mostly Cloudy
12:16 PM 44.6 °F 42.2 °F 37.4 °F 76% 29.57 in 10.0 mi NNE 4.6 mph - N/A   Mostly Cloudy
12:36 PM 44.6 °F 41.4 °F 37.4 °F 76% 29.57 in 10.0 mi NNE 5.8 mph - N/A   Mostly Cloudy
12:56 PM 44.6 °F 42.2 °F 37.4 °F 76% 29.57 in 10.0 mi NNE 4.6 mph - N/A   Overcast
1:16 PM 44.6 °F 42.2 °F 37.4 °F 76% 29.57 in 10.0 mi NNE 4.6 mph - N/A   Overcast
1:36 PM 44.6 °F 41.4 °F 37.4 °F 76% 29.57 in 10.0 mi North 5.8 mph - N/A   Overcast
1:56 PM 44.6 °F 40.2 °F 35.6 °F 71% 29.58 in 10.0 mi NE 8.1 mph - N/A   Overcast
2:16 PM 42.8 °F 41.1 °F 37.4 °F 81% 29.59 in 10.0 mi NNE 3.5 mph - N/A   Overcast
2:36 PM 42.8 °F 40.1 °F 35.6 °F 76% 29.59 in 10.0 mi NNE 4.6 mph - N/A   Overcast
2:56 PM 41.0 °F - 35.6 °F 81% 29.61 in 7.0 mi Calm Calm - N/A   Overcast
3:16 PM 41.0 °F 38.0 °F 37.4 °F 87% 29.61 in 7.0 mi NW 4.6 mph - N/A   Overcast
3:36 PM 41.0 °F 38.0 °F 37.4 °F 87% 29.62 in 7.0 mi WNW 4.6 mph - N/A   Overcast
3:56 PM 39.2 °F 35.9 °F 37.4 °F 93% 29.63 in 7.0 mi NNW 4.6 mph - N/A   Overcast
4:16 PM 39.2 °F - 37.4 °F 93% 29.63 in 7.0 mi Calm Calm - N/A   Overcast
4:36 PM 39.2 °F - 37.4 °F 93% 29.64 in 7.0 mi Calm Calm - N/A   Overcast
4:56 PM 39.2 °F - 37.4 °F 93% 29.64 in 5.0 mi Calm Calm - N/A   Overcast
5:16 PM 39.2 °F - 37.4 °F 93% 29.65 in 5.0 mi Calm Calm - N/A   Overcast
5:36 PM 39.2 °F 35.9 °F 37.4 °F 93% 29.65 in 5.0 mi North 4.6 mph - N/A   Overcast
5:56 PM 39.2 °F - 37.4 °F 93% 29.66 in 5.0 mi Calm Calm - N/A   Overcast
6:16 PM 39.2 °F - 37.4 °F 93% 29.66 in 5.0 mi Calm Calm - N/A   Overcast
6:36 PM 39.2 °F - 37.4 °F 93% 29.66 in 5.0 mi Calm Calm - N/A   Overcast
6:56 PM 39.2 °F - 37.4 °F 93% 29.67 in 7.0 mi Calm Calm - N/A   Overcast
7:16 PM 39.2 °F - 37.4 °F 93% 29.67 in 7.0 mi Calm Calm - N/A   Overcast
7:36 PM 39.2 °F - 37.4 °F 93% 29.68 in 7.0 mi Calm Calm - N/A   Overcast
7:56 PM 39.2 °F - 37.4 °F 93% 29.68 in 10.0 mi Calm Calm - N/A   Mostly Cloudy
8:16 PM 39.2 °F - 37.4 °F 93% 29.69 in 10.0 mi Calm Calm - N/A   Mostly Cloudy
8:36 PM 37.4 °F - 37.4 °F 100% 29.69 in 10.0 mi Calm Calm - N/A   Mostly Cloudy
8:56 PM 39.2 °F 35.9 °F 37.4 °F 93% 29.71 in 10.0 mi NNW 4.6 mph - N/A   Overcast
9:16 PM 39.2 °F 34.2 °F 33.8 °F 81% 29.71 in 10.0 mi NNE 6.9 mph - N/A   Overcast
9:36 PM 39.2 °F 35.9 °F 35.6 °F 87% 29.71 in 10.0 mi North 4.6 mph - N/A   Overcast
9:56 PM 39.2 °F - 35.6 °F 87% 29.72 in 10.0 mi Calm Calm - N/A   Overcast
10:16 PM 39.2 °F - 33.8 °F 81% 29.72 in 10.0 mi Calm Calm - N/A   Overcast
10:36 PM 37.4 °F - 35.6 °F 93% 29.73 in 10.0 mi Calm Calm - N/A   Mostly Cloudy
10:56 PM 37.4 °F 34.9 °F 35.6 °F 93% 29.74 in 10.0 mi North 3.5 mph - N/A   Overcast